Regional Weather Roundup
Issued by NWS

Home | Current Version | Previous Version | Text Only | Print | Product List | Glossary Off
Versions: 1 2 3 4 5 6 7 8 9 10 11 12 13 14 15 16 17 18 19 20 21 22 23 24 25 26 27 28 29 30 31 32 33 34 35 36 37 38 39 40 41 42 43 44 45 46 47 48 49 50

000
ASUS43 KMKX 242311
RWRWI

WISCONSIN REGIONAL WEATHER ROUNDUP
NATIONAL WEATHER SERVICE MILWAUKEE/SULLIVAN WI
600 PM CDT FRI APR 24 2015

NOTE: "FAIR" INDICATES FEW OR NO CLOUDS BELOW 12,000 FEET WITH NO
SIGNIFICANT WEATHER AND/OR OBSTRUCTIONS TO VISIBILITY.

WIZ001-002-006>008-014>016-023>028-250000-
NORTHWEST WISCONSIN

CITY           SKY/WX    TMP DP  RH WIND       PRES   REMARKS
SUPERIOR ARPT  CLOUDY    36  32  84 NE13      29.93S WCI  27
ASHLAND        CLOUDY    41  31  67 N7        29.96F
HAYWARD        CLOUDY    40  33  76 E12       29.89F WCI  33
SIREN          CLOUDY    48  27  43 E7        29.85S
CUMBERLAND     CLOUDY    50  23  34 SE7       29.84F
RICE LAKE      CLOUDY    52  24  33 E6        29.86F
CHETEK         CLOUDY    52  28  39 SE10      29.86R
LADYSMITH      CLOUDY    49  25  39 NE10G16   29.89S
EAU CLAIRE     CLOUDY    53  27  36 SE12      29.85S
MENOMONIE      CLOUDY    51  32  48 SE8       29.85F
NEW RICHMOND   DRIZZLE   47  35  62 SE9       29.84R
OSCEOLA        LGT RAIN  49  35  56 SE9       29.86S
$$

WIZ003>005-009-010-017-018-250000-
NORTH CENTRAL WISCONSIN

CITY           SKY/WX    TMP DP  RH WIND       PRES   REMARKS
MANITOWISH WTR CLOUDY    39  32  76 CALM      29.94F
ARBOR VITAE    DRIZZLE   42  33  71 SE5       29.93F
WOODRUFF       DRIZZLE   42  33  71 SE5       29.93F
RHINELANDER    CLOUDY    45  24  43 E9        29.93F
EAGLE RIVER    CLOUDY    46  19  35 CALM      29.93F
LAND O LAKES   CLOUDY    45  25  44 W5        29.94S
PHILLIPS       CLOUDY    43  28  55 NE9       29.90F
TOMAHAWK       CLOUDY    46  22  37 NE9       29.91F
MEDFORD        CLOUDY    51  23  32 E6        29.87S
MERRILL        CLOUDY    52  22  30 E7        29.90S
$$

WIZ029-030-035-036-043>047-250000-
CENTRAL WISCONSIN

CITY           SKY/WX    TMP DP  RH WIND       PRES   REMARKS
WAUSAU         CLOUDY    53  20  27 E13       29.88S
MOSINEE        PTSUNNY   52  21  30 E9        29.90S
MARSHFIELD     CLOUDY    53  21  28 S14       29.88R
STEVENS POINT  CLOUDY    51  23  33 SE12G18   29.91R
WAUPACA        CLOUDY    51  21  30 E14G21    29.95R
WAUTOMA        CLOUDY    55  18  23 S9        29.92R
WISC RAPIDS    CLOUDY    54  16  22 S9        29.91R
CAMP DOUGLAS   LGT RAIN  44  44 100 SE9       29.91S
$$

WIZ011>013-019>022-031-037>040-048>050-250000-
NORTHEAST WISCONSIN

CITY           SKY/WX    TMP DP  RH WIND       PRES   REMARKS
ANTIGO         CLOUDY    49  24  37 SE10      29.92F
SHAWANO        CLOUDY    48  24  39 E13       29.96S
OCONTO         CLOUDY    43  23  46 E10       30.00S
STURGEON BAY   CLOUDY    39  23  52 E10       30.03F WCI  32
GREEN BAY      CLOUDY    48  21  34 E12G21    29.98S
MANITOWOC      CLOUDY    41  24  51 E8        30.00F
APPLETON       PTSUNNY   46  16  29 E9        29.96S
CLINTONVILLE   CLOUDY    50  23  34 SE9       29.94S
OSHKOSH        CLOUDY    48  23  37 E15G22    29.95S
$$

WIZ032>034-041-042-053>061-250000-
SOUTHWEST WISCONSIN

CITY           SKY/WX    TMP DP  RH WIND       PRES   REMARKS
LA CROSSE      LGT RAIN  47  42  83 E6        29.86F
SPARTA         LGT RAIN  44  39  82 E6        29.90S
VIROQUA        CLOUDY    42  42 100 E12       29.87S
BOSCOBEL       LGT RAIN  44  41  89 VRB6      29.90F
PRAIRIE DU CHI RAIN      45  40  82 E7        29.87F
PLATTEVILLE    CLOUDY    44  40  84 E13       29.87F
$$

WIZ056-057-062-063-064-067-068-250000-
SOUTH CENTRAL WISCONSIN

CITY           SKY/WX    TMP DP  RH WIND       PRES   REMARKS
REEDSBURG      LGT RAIN  42  39  90 E7        29.91F
BARABOO/DELLS  LGT RAIN  42  38  87 E8        29.92S
LONE ROCK      LGT RAIN  43  40  89 E9        29.92S
MINERAL POINT  LGT RAIN  45  41  87 E9        29.89F
MADISON        LGT RAIN  43  37  79 SE9       29.93F
MIDDLETON      CLOUDY    44  38  80 E8        29.93R
WATERTOWN      CLOUDY    41  38  90 SE9       29.94F
MONROE         LGT RAIN  43  37  81 E9        29.90S
JANESVILLE     PTSUNNY   46  39  76 E12       29.91F
$$

WIZ051-052-058>065-066-070>072-250000-
SOUTHEAST WISCONSIN

CITY           SKY/WX    TMP DP  RH WIND       PRES   REMARKS
MILWAUKEE      RAIN      39  29  67 E9        29.99S WCI  33
WAUKESHA       CLOUDY    37  34  87 E7        29.98S WCI  32
MILWAUKEE/TIMM SLEET     43  25  49 SE6       30.01R
RACINE         LGT RAIN  40  34  79 E3        30.01R
BURLINGTON     MIX PCPN  40  36  83 NE3       29.97F
KENOSHA        LGT RAIN  42  35  76 E6        29.99R
FOND DU LAC    CLOUDY    47  21  35 SE16      29.96R
SHEBOYGAN      CLOUDY    40  24  53 E10       29.99F WCI  33
WEST BEND      CLOUDY    41  23  48 S5        29.99R
JUNEAU         RAIN      42  37  81 E10       29.96S
$$

LSZ147-162-250000-
LAKE SUPERIOR

STATION/POSITION TIME  TEMP    WIND        PRES    WAVE
                       AIR SEA DIR/SP/G            HT/PER
                 (UTC) (F)     (DEG/KT/KT) (MB)    (FT/S)
W MID LAKE BUOY  2250   35 34   60/ 17/ 21 1016.7F   3/ 4
DEVILS ISLAND    2300   35      90/ 12/ 13 1016.4S
PORT WING        2200   40      40/  3/  4 1014.6F
SAXON HARBOR     2240   38      CALM  /  2 1014.6F
$$

LMZ867-665-643>646-250000-
LAKE MICHIGAN

STATION/POSITION TIME  TEMP    WIND        PRES    WAVE
                       AIR SEA DIR/SP/G            HT/PER
                 (UTC) (F)     (DEG/KT/KT) (MB)    (FT/S)
CHAMBERS ISLAND  2200   42     120/  7/ 11 1016.9F
NORTHPORT PIER   2200   36     140/  9/ 12 1017.3F
SISTER BAY       2217   40     140/  9/ 12   N/A
KEWAUNEE LAKESHO 2200   38      70/  7/ 12 1016.0F
SHEBOYGAN LAKESH 2300   37      50/  8/  9 1016.6F
PORT WASHINGTON  2240   41      50/  5/  7 1016.6R
MILWAUKEE LAKESH 2200   40      50/  3/  5   N/A
KENOSHA   LAKESH 2300   41      90/  7/ 10 1015.6S
$$

TC  - TEMPERATURE IN CELSIUS
VSB - VISIBILITY IN STATUTE MILES
WCI - WIND CHILL INDEX
HX  - HEAT INDEX



USA.gov is the U.S. government's official web portal to all federal, state and local government web resources and services.